STARLINK-32380

Last updated on Fri Oct 04 2024 00:02:04 GMT+0000 (Coordinated Universal Time)

1 61069U 24164V 24277.58334491 -.01349329 00000+0 -21214-1 0 9991 2 61069 53.1600 6.2944 0001181 72.1140 137.6743 15.55883894 4416
UTC large
Height (km)
Speed (km/s)
/
Latitude / Longitude
Inclination (degrees)
Orbital Period (minutes)
Azimuth
Elevation
Range (km)
Doppler Factor

Next 0 passes for location: London (51.5072 / 0.1276)

Sorry there are no passes over London.